Weather observations for the past three days for
French Lick Municipal Airport
Imperial (Metric)
Date Time (edt) Wind (mph) Vis. (mi.) Weather Sky Cond. Temperature (ºF) Relative Humidity Wind Chill (°F) Heat Index (°F) Pressure Precipitation (in)
Air Dwpt 6 hour altimeter (in) sea level (mb) 1 hr 3 hr 6 hr
Max. Min.
12 05:35 Calm 10.00 Partly Cloudy SCT080 68 68 100% 30.07 0.0
12 05:15 Calm 10.00 Fair CLR 68 68 100% 30.06 0.0
12 04:55 Calm 10.00 Partly Cloudy SCT090 68 68 100% 30.06 0.0
12 04:35 Calm 10.00 Partly Cloudy SCT090 68 68 100% 30.06 0.0
12 04:15 Calm 10.00 Partly Cloudy SCT090 68 68 100% 30.06 0.0
12 03:55 Calm 10.00 Fair CLR 68 68 100% 30.06 0.0
12 03:35 Calm 10.00 Partly Cloudy SCT070 68 68 100% 30.07 0.0
12 03:15 Calm 10.00 Fair CLR 69.8 68 94% 30.07 0.0
12 02:55 Calm 10.00 Partly Cloudy SCT100 SCT120 69.8 68 94% 30.07 0.0
12 02:35 Calm 10.00 Overcast OVC110 69.8 66.2 88% 30.07 0.0
12 02:15 Calm 10.00 Overcast SCT095 OVC120 71.6 64.4 78% 30.08 0.0
12 01:55 Calm 10.00 Overcast OVC095 71.6 64.4 78% 30.09 0.0
12 01:35 W 6 10.00 Overcast SCT033 SCT050 OVC095 71.6 66.2 83% 30.1 0.0
12 01:15 W 9 10.00 Overcast SCT036 BKN070 OVC110 71.6 68 88% 30.1 0.0
12 00:55 Calm 10.00 Overcast BKN085 OVC100 71.6 69.8 94% 30.09 0.0
12 00:35 Calm 10.00 Partly Cloudy SCT100 71.6 68 88% 30.08 0.0
12 00:15 Calm 10.00 Partly Cloudy SCT120 71.6 68 88% 30.08 0.0
11 23:55 Calm 10.00 Partly Cloudy SCT120 73.4 66.2 78% 30.08 0.0
11 23:35 Calm 10.00 Fair CLR 73.4 66.2 78% 30.07 0.0
11 23:15 Calm 10.00 Fair CLR 73.4 64.4 74% 30.07 0.0
11 22:55 Calm 10.00 Fair CLR 75.2 64.4 69% 77 30.07 0.0
11 22:35 Calm 10.00 Fair CLR 75.2 64.4 69% 77 30.06 0.0
11 22:15 Calm 10.00 Fair CLR 73.4 64.4 74% 30.06 0.0
11 21:55 Calm 10.00 Partly Cloudy SCT042 SCT075 SCT095 75.2 62.6 65% 77 30.06 0.0
11 21:35 Calm 10.00 Fair CLR 77 64.4 65% 79 30.06 0.0
11 21:15 Calm 10.00 Fair CLR 77 68 74% 79 30.06 0.0
11 20:55 Calm 10.00 Fair CLR 77 68 74% 79 30.05 0.0
11 20:35 Calm 10.00 Fair CLR 78.8 68 70% 81 30.04 0.0
11 20:15 Calm 10.00 Fair CLR 80.6 68 66% 83 30.04 0.0
11 19:55 Calm 10.00 Partly Cloudy SCT042 80.6 64.4 58% 82 30.04 0.0
11 19:35 SW 3 10.00 Partly Cloudy SCT042 82.4 64.4 55% 84 30.04 0.0
11 19:15 SW 5 10.00 Partly Cloudy SCT045 82.4 64.4 55% 84 30.03 0.0
11 18:55 Calm 10.00 Mostly Cloudy SCT043 BKN055 82.4 64.4 55% 84 30.03 0.0
11 18:35 SW 3 10.00 Mostly Cloudy SCT043 SCT049 BKN055 82.4 64.4 55% 84 30.03 0.0
11 18:15 SW 5 10.00 Partly Cloudy SCT041 82.4 64.4 55% 84 30.03 0.0
11 17:55 SW 5 10.00 Mostly Cloudy BKN041 BKN049 BKN060 82.4 64.4 55% 84 30.04 0.0
11 17:35 SW 5 10.00 Mostly Cloudy SCT044 BKN060 BKN090 84.2 64.4 51% 86 30.04 0.0
11 17:15 W 3 10.00 Mostly Cloudy SCT050 SCT070 BKN090 82.4 62.6 51% 83 30.04 0.0
11 16:55 W 6 10.00 Mostly Cloudy SCT050 SCT070 BKN085 82.4 64.4 55% 84 30.04 0.0
11 16:35 SW 5 10.00 Partly Cloudy SCT050 SCT120 84.2 64.4 51% 86 30.04 0.0
11 16:15 SW 5 10.00 Mostly Cloudy SCT041 SCT055 BKN120 80.6 64.4 58% 82 30.05 0.0
11 15:55 SW 8 10.00 Mostly Cloudy SCT041 SCT050 BKN095 84.2 62.6 48% 85 30.05 0.0
11 15:35 Calm 10.00 Mostly Cloudy SCT041 SCT046 BKN095 82.4 64.4 55% 84 30.05 0.0
11 15:15 SW 6 10.00 Mostly Cloudy SCT042 SCT050 BKN095 82.4 64.4 55% 84 30.05 0.0
11 14:55 SW 7 10.00 Partly Cloudy SCT042 SCT049 SCT070 82.4 62.6 51% 83 30.06 0.0
11 14:35 W 7 10.00 Partly Cloudy SCT040 SCT048 SCT060 82.4 62.6 51% 83 30.06 0.0
11 14:15 SW 6 10.00 Partly Cloudy SCT060 82.4 64.4 55% 84 30.06 0.0
11 13:55 SW 5 10.00 Partly Cloudy SCT040 SCT060 SCT075 82.4 62.6 51% 83 30.06 0.0
11 13:35 S 3 10.00 Mostly Cloudy SCT040 SCT050 BKN075 82.4 62.6 51% 83 30.07 0.0
11 13:15 SW 5 10.00 Mostly Cloudy SCT038 SCT050 BKN075 82.4 62.6 51% 83 30.07 0.0
11 12:55 Calm 10.00 Partly Cloudy SCT034 SCT050 SCT070 82.4 62.6 51% 83 30.08 0.0
11 12:35 W 3 10.00 Partly Cloudy SCT036 SCT050 82.4 62.6 51% 83 30.08 0.0
11 12:15 SW 5 10.00 Partly Cloudy SCT034 SCT050 SCT065 80.6 62.6 54% 82 30.08 0.0
11 11:55 SW 5 10.00 Fair CLR 80.6 64.4 58% 82 30.08 0.0
11 11:35 SW 5 10.00 Fair CLR 80.6 64.4 58% 82 30.08 0.0
11 11:15 S 3 10.00 Fair CLR 80.6 64.4 58% 82 30.07 0.0
11 10:55 Calm 10.00 Fair CLR 78.8 64.4 61% 81 30.07 0.0
11 10:35 SW 3 10.00 Fair CLR 77 68 74% 79 30.08 0.0
11 10:15 Calm 10.00 Fair CLR 77 68 74% 79 30.07 0.0
11 09:55 Calm 10.00 Fair CLR 75.2 69.8 83% 75 30.08 0.0
11 09:35 Calm 10.00 Fair CLR 73.4 69.8 89% 30.08 0.0
11 09:15 Calm 10.00 Fair CLR 71.6 71.6 100% 30.08 0.0
11 08:55 Calm 10.00 Fair CLR 71.6 71.6 100% 30.08 0.0
11 08:35 Calm 10.00 Fair CLR 71.6 71.6 100% 30.08 0.0
11 08:15 Calm 10.00 Fair CLR 0 0 0% 30.07 0.0
11 07:55 Calm 7.00 Fair CLR 0 0 0% 30.06 0.0
11 07:35 Calm 5.00 Fair CLR 0 0 0% 30.06 0.0
11 07:15 Calm 3.00 Fair CLR 0 0 0% 30.05 0.0
11 06:55 Calm 5.00 Fair CLR 0 0 0% 30.05 0.0
11 06:35 Calm 7.00 Fair CLR 0 0 0% 30.04 0.0
11 06:15 Calm 10.00 Fair CLR 0 0 0% 30.03 0.0
11 05:55 Calm 10.00 Fair CLR 0 0 0% 30.03 0.0
11 05:35 Calm 10.00 Fair CLR 0 0 0% 30.02 0.0
11 05:15 Calm 10.00 Fair CLR 0 0 0% 30.01 0.0
11 04:55 Calm 10.00 Fair CLR 0 0 0% 30.01 0.0
11 04:35 Calm 7.00 Fair CLR 0 0 0% 30.01 0.0
11 04:15 Calm 10.00 Fair CLR 0 0 0% 30.01 0.0
11 03:55 Calm 10.00 Fair CLR 0 0 0% 30.01 0.0
11 03:35 Calm 10.00 Fair CLR 0 0 0% 30.01 0.0
11 03:15 Calm 10.00 Fair CLR 0 0 0% 30.01 0.0
11 02:55 Calm 10.00 Fair CLR 0 0 0% 30.01 0.0
11 02:35 Calm 10.00 Fair CLR 0 0 0% 30.01 0.0
11 02:15 Calm 10.00 Fair CLR 68 68 100% 30.01 0.0
11 01:55 Calm 10.00 Partly Cloudy SCT110 69.8 69.8 100% 30.01 0.0
11 01:35 Calm 10.00 Mostly Cloudy BKN110 69.8 69.8 100% 30.01 0.0
11 01:15 Calm 10.00 Partly Cloudy SCT100 68 68 100% 30.01 0.0
11 00:55 Calm 10.00 Fair CLR 69.8 68 94% 30.02 0.0
11 00:35 Calm 10.00 Partly Cloudy SCT085 69.8 68 94% 30.02 0.0
11 00:15 Calm 10.00 Partly Cloudy SCT085 69.8 68 94% 30.01 0.0
10 23:55 Calm 10.00 Partly Cloudy SCT085 SCT100 69.8 68 94% 30.02 0.0
10 23:35 Calm 10.00 Fair CLR 69.8 68 94% 30.01 0.0
10 23:15 Calm 10.00 Fair CLR 71.6 68 88% 30.01 0.0
10 22:55 Calm 10.00 Fair CLR 69.8 68 94% 30.01 0.0
10 22:35 Calm 10.00 Fair CLR 69.8 68 94% 30.01 0.0
10 22:15 Calm 10.00 Fair CLR 69.8 68 94% 30.01 0.0
10 21:55 Calm 10.00 Fair CLR 71.6 64.4 78% 30 0.0
10 21:35 Calm 10.00 Fair CLR 73.4 64.4 74% 29.99 0.0
10 21:15 Calm 10.00 Fair CLR 73.4 64.4 74% 29.99 0.0
10 20:55 Calm 10.00 Fair CLR 75.2 64.4 69% 77 29.99 0.0
10 20:35 Calm 10.00 Fair CLR 77 62.6 61% 79 29.98 0.0
10 20:15 Calm 10.00 Fair CLR 78.8 62.6 58% 80 29.98 0.0
10 19:55 Calm 10.00 Fair CLR 78.8 62.6 58% 80 29.98 0.0
10 19:35 Calm 10.00 Fair CLR 78.8 60.8 54% 80 29.98 0.0
10 19:15 W 3 10.00 Fair CLR 80.6 60.8 51% 81 29.98 0.0
10 18:55 W 7 10.00 Partly Cloudy SCT043 SCT060 80.6 59 48% 81 29.97 0.0
10 18:35 SW 6 10.00 Partly Cloudy SCT043 80.6 60.8 51% 81 29.98 0.0
10 18:15 W 6 10.00 Partly Cloudy SCT041 SCT050 78.8 60.8 54% 80 29.98 0.0
10 17:55 W 5 10.00 Partly Cloudy SCT048 SCT060 80.6 60.8 51% 81 29.97 0.0
10 17:35 NW 7 10.00 Mostly Cloudy SCT040 BKN050 80.6 60.8 51% 81 29.97 0.0
10 17:15 W 7 10.00 Partly Cloudy SCT042 SCT050 80.6 60.8 51% 81 29.97 0.0
10 16:55 W 7 10.00 Mostly Cloudy SCT042 BKN048 80.6 59 48% 81 29.97 0.0
10 16:35 W 7 10.00 Mostly Cloudy BKN047 80.6 59 48% 81 29.98 0.0
10 16:15 W 9 G 17 10.00 Partly Cloudy SCT044 SCT050 80.6 59 48% 81 29.97 0.0
10 15:55 W 7 G 18 10.00 Partly Cloudy SCT050 80.6 59 48% 81 29.98 0.0
10 15:35 W 6 10.00 Partly Cloudy SCT041 SCT050 78.8 59 51% 80 29.98 0.0
10 15:15 W 8 G 16 10.00 Partly Cloudy SCT041 SCT050 78.8 59 51% 80 29.97 0.0
10 14:55 W 7 10.00 Mostly Cloudy BKN041 BKN047 BKN055 78.8 59 51% 80 29.98 0.0
10 14:35 NW 6 10.00 Partly Cloudy SCT043 SCT055 78.8 59 51% 80 29.98 0.0
10 14:15 W 8 G 18 10.00 Mostly Cloudy BKN043 BKN050 78.8 59 51% 80 29.98 0.0
10 13:55 NW 6 G 17 10.00 Partly Cloudy SCT043 78.8 57.2 48% 80 29.97 0.0
10 13:35 NW 8 10.00 Partly Cloudy SCT041 77 59 54% 79 29.97 0.0
10 13:15 NW 7 G 21 10.00 Partly Cloudy SCT037 77 59 54% 79 29.97 0.0
10 12:55 W 9 G 20 10.00 Partly Cloudy SCT040 77 59 54% 79 29.96 0.0
10 12:35 W 9 G 21 10.00 Partly Cloudy SCT036 SCT042 75.2 59 57% 78 29.96 0.0
10 12:15 W 6 10.00 Partly Cloudy SCT042 75.2 59 57% 78 29.96 0.0
10 11:55 W 14 G 20 10.00 Partly Cloudy SCT032 SCT038 73.4 59 61% 29.95 0.0
10 11:35 W 6 G 28 10.00 Partly Cloudy SCT034 73.4 59 61% 29.95 0.0
10 11:15 W 15 G 20 10.00 Partly Cloudy SCT032 71.6 59 65% 29.94 0.0
10 10:55 W 8 G 16 10.00 Partly Cloudy SCT028 71.6 60.8 69% 29.93 0.0
10 10:35 W 9 G 16 10.00 Partly Cloudy SCT024 SCT030 69.8 60.8 73% 29.93 0.0
10 10:15 W 8 G 17 10.00 Partly Cloudy SCT022 69.8 62.6 78% 29.92 0.0
10 09:55 W 7 10.00 Mostly Cloudy SCT020 BKN028 0 0 0% 29.91 0.0
10 09:35 W 7 G 20 10.00 Overcast SCT018 BKN028 OVC050 0 0 0% 29.91 0.0
10 09:15 Calm 10.00 Overcast BKN016 BKN035 OVC050 0 0 0% 29.9 0.0
10 08:55 W 9 G 17 10.00 Overcast BKN012 BKN018 OVC050 0 0 0% 29.89 0.0
10 08:35 W 7 10.00 Overcast BKN012 OVC017 0 0 0% 29.88 0.0
10 08:15 W 7 G 17 10.00 Overcast OVC012 0 0 0% 29.87 0.0
10 07:55 W 3 10.00 Overcast OVC012 0 0 0% 29.86 0.0
10 07:35 W 9 G 22 10.00 Overcast OVC010 0 0 0% 29.85 0.0
10 07:15 W 7 G 16 10.00 Overcast OVC010 0 0 0% 29.83 0.0
10 06:55 W 9 G 21 10.00 Overcast OVC008 0 0 0% 29.82 0.0
10 06:35 W 15 G 29 7.00 Overcast OVC006 0 0 0% 29.8 0.0
10 06:15 W 17 G 29 3.00 Overcast OVC004 0 0 0% 29.79 0.0
10 05:55 W 14 G 22 7.00 Overcast OVC004 0 0 0% 29.77 0.0
10 05:35 W 12 G 21 3.00 Overcast OVC004 0 0 0% 29.76 0.0
10 05:15 W 14 G 30 2.50 Overcast OVC004 0 0 0% 29.74 0.0
10 04:55 W 15 G 26 2.50 Overcast OVC004 0 0 0% 29.73 0.0
10 04:35 W 6 G 20 2.50 Overcast OVC004 0 0 0% 29.71 0.0
10 04:15 W 9 G 17 2.00 Overcast OVC004 0 0 0% 29.71 0.0
10 03:55 W 12 G 18 1.75 Overcast OVC004 0 0 0% 29.7 0.0
10 03:35 SW 9 G 18 3.00 Overcast OVC004 0 0 0% 29.7 0.0
10 03:15 SW 8 G 16 4.00 Overcast OVC004 0 0 0% 29.69 0.0
10 02:55 SW 14 G 18 10.00 Overcast OVC004 0 0 0% 29.69 0.0
10 02:35 SW 13 G 20 2.50 Overcast OVC004 0 0 0% 29.69 0.0
10 02:15 Calm 2.00 Overcast OVC004 0 0 0% 29.69 0.0
10 01:55 Calm 4.00 Overcast OVC008 0 0 0% 29.69 0.0
10 01:35 Calm 10.00 Overcast OVC008 0 0 0% 29.7 0.0
10 01:15 Calm 10.00 Overcast OVC008 0 0 0% 29.7 0.0
10 00:55 Calm 10.00 Overcast BKN010 OVC014 0 0 0% 29.71 0.0
10 00:35 SW 7 G 23 10.00 Overcast BKN012 OVC017 0 0 0% 29.71 0.0
10 00:15 SW 8 10.00 Overcast BKN012 OVC022 0 0 0% 29.71 0.0
09 23:55 Calm 10.00 Overcast SCT006 OVC012 0 0 0% 29.71 0.0
09 23:35 Calm 10.00 Overcast BKN008 OVC012 0 0 0% 29.72 0.0
09 23:15 Calm 10.00 Mostly Cloudy SCT007 BKN012 0 0 0% 29.72 0.0
09 22:55 Calm 10.00 Partly Cloudy SCT022 SCT049 0 0 0% 29.72 0.0
09 22:35 Calm 10.00 Overcast SCT010 BKN017 OVC049 0 0 0% 29.73 0.0
09 22:15 Calm 10.00 Overcast SCT006 BKN013 OVC022 0 0 0% 29.73 0.0
09 21:55 Calm 10.00 Overcast SCT004 BKN008 OVC043 0 0 0% 29.74 0.0
09 21:35 Calm 10.00 Overcast SCT004 BKN009 OVC041 0 0 0% 29.74 0.0
09 21:15 Calm 2.50 Overcast SCT004 BKN009 OVC031 0 0 0% 29.74 0.0
09 20:55 W 6 1.25 Overcast BKN004 OVC010 71.6 71.6 100% 29.74 0.0
09 20:35 W 16 G 29 10.00 Overcast SCT039 OVC060 73.4 71.6 94% 29.74 0.0
09 20:15 S 7 10.00 Overcast SCT013 SCT021 OVC060 75.2 73.4 94% 74 29.71 0.0
09 19:55 SE 13 G 23 10.00 Overcast SCT015 BKN050 OVC090 78.8 75.2 89% 82 29.71 0.0
09 19:35 E 9 10.00 Mostly Cloudy SCT018 SCT033 BKN090 78.8 75.2 89% 82 29.69 0.0
09 19:15 SE 5 7.00 Overcast SCT020 BKN046 OVC080 78.8 77 94% 83 29.71 0.0
09 18:55 SE 7 7.00 Mostly Cloudy SCT023 SCT031 BKN041 78.8 73.4 84% 82 29.71 0.0
09 18:35 E 9 10.00 Mostly Cloudy SCT040 SCT050 BKN070 80.6 71.6 74% 85 29.71 0.0
09 18:15 E 9 10.00 Mostly Cloudy SCT041 BKN050 BKN070 80.6 69.8 70% 84 29.73 0.0
09 17:55 E 9 10.00 Mostly Cloudy SCT060 BKN090 82.4 69.8 66% 86 29.74 0.0
09 17:35 E 13 G 18 10.00 Mostly Cloudy SCT025 SCT060 BKN090 82.4 69.8 66% 86 29.76 0.0
09 17:15 E 9 G 18 10.00 Partly Cloudy SCT025 SCT110 82.4 69.8 66% 86 29.76 0.0
09 16:35 E 10 10.00 Partly Cloudy SCT055 80.6 68 66% 83 29.8 0.0
09 16:15 E 9 10.00 Partly Cloudy SCT060 SCT065 80.6 68 66% 83 29.81 0.0
09 15:55 E 13 10.00 Mostly Cloudy SCT040 BKN060 BKN070 80.6 68 66% 83 29.82 0.0
09 15:35 E 12 G 17 10.00 Overcast BKN042 BKN050 OVC100 78.8 68 70% 81 29.84 0.0
09 15:15 E 10 10.00 Overcast OVC044 77 68 74% 79 29.86 0.0
09 14:55 E 14 10.00 Overcast OVC046 77 69.8 79% 79 29.87 0.0
09 14:35 NE 9 10.00 Overcast OVC050 75.2 69.8 83% 75 29.88 0.0
09 14:15 E 14 10.00 Overcast OVC050 77 68 74% 79 29.89 0.0
09 13:55 NE 9 10.00 Overcast SCT042 OVC055 75.2 68 78% 76 29.9 0.0
09 13:35 NE 7 10.00 Overcast BKN040 OVC055 73.4 69.8 89% 29.92 0.0
09 13:15 E 12 10.00 Overcast OVC042 73.4 69.8 89% 29.93 0.0
09 12:55 E 12 10.00 Overcast OVC044 75.2 68 78% 76 29.93 0.0
09 12:35 E 9 10.00 Overcast BKN044 BKN050 OVC070 73.4 71.6 94% 29.94 0.0
09 12:15 E 7 10.00 Overcast SCT011 BKN050 OVC070 73.4 71.6 94% 29.95 0.0
09 11:55 Calm 10.00 Overcast SCT009 SCT016 OVC055 71.6 71.6 100% 29.98 0.0
09 11:35 Calm 10.00 Overcast OVC065 73.4 71.6 94% 29.96 0.0
09 11:15 Calm 10.00 Overcast BKN065 OVC090 73.4 71.6 94% 29.96 0.0
09 10:55 Calm 10.00 Overcast SCT050 BKN070 OVC075 73.4 69.8 89% 29.97 0.0
09 10:35 Calm 10.00 Overcast SCT041 BKN050 OVC070 73.4 69.8 89% 29.99 0.0
09 10:15 Calm 10.00 Overcast SCT045 BKN060 OVC095 71.6 69.8 94% 29.97 0.0
09 09:55 Calm 10.00 Overcast SCT042 SCT060 OVC100 71.6 69.8 94% 29.97 0.0
09 09:35 Calm 10.00 Overcast SCT038 BKN070 OVC090 71.6 69.8 94% 29.97 0.0
09 09:15 Calm 10.00 Mostly Cloudy SCT060 SCT070 BKN090 71.6 69.8 94% 29.96 0.0
09 08:55 Calm 10.00 Partly Cloudy SCT060 SCT080 SCT120 71.6 69.8 94% 29.96 0.0
09 08:35 Calm 10.00 Partly Cloudy SCT060 SCT080 SCT120 71.6 69.8 94% 29.98 0.0
09 08:15 Calm 10.00 Fair CLR 71.6 71.6 100% 29.98 0.0
09 07:55 Calm 10.00 Fair CLR 71.6 71.6 100% 29.98 0.0
09 07:35 Calm 10.00 Fair CLR 71.6 71.6 100% 29.98 0.0
09 07:15 Calm 10.00 Partly Cloudy SCT044 69.8 69.8 100% 29.98 0.0
09 06:55 Calm 10.00 Mostly Cloudy BKN042 71.6 71.6 100% 29.98 0.0
09 06:35 Calm 10.00 Partly Cloudy SCT040 71.6 71.6 100% 29.99 0.0
09 06:15 Calm 10.00 Fair CLR 71.6 71.6 100% 29.99 0.0
09 05:55 Calm 10.00 Fair CLR 71.6 71.6 100% 29.99 0.0
Date Time (edt) Wind (mph) Vis. (mi.) Weather Sky Cond. Air Dwpt Max. Min. Relative Humidity Wind Chill (°F) Heat Index (°F) altimeter (in) sea level (mb) 1 hr 3 hr 6 hr
6 hour
Temperature (ºF) Pressure Precipitation (in)